This is the latest recevied weather packets stored in our database for station/object VR2MW-X. If no packets are shown the sender has not sent any weather packets the latest 10 day(s).
| Time | Temp. | Humidity | Pressure | Rain* | Wind** | Luminosity | Snow |
|---|---|---|---|---|---|---|---|
| 1777482964 | 21.11° C | 77% | 1014.7 hPa | - | - | - | - |
| 1777482354 | 21.11° C | 75% | 1014.8 hPa | - | - | - | - |
| 1777481742 | 21.11° C | 73% | 1015 hPa | - | - | - | - |
| 1777481132 | 21.11° C | 73% | 1015 hPa | - | - | - | - |
| 1777480521 | 21.11° C | 72% | 1014.7 hPa | - | - | - | - |
| 1777479911 | 21.11° C | 75% | 1014.7 hPa | - | - | - | - |
| 1777479299 | 21.11° C | 75% | 1014.7 hPa | - | - | - | - |
| 1777478688 | 21.11° C | 73% | 1014.8 hPa | - | - | - | - |
| 1777478077 | 22.22° C | 76% | 1015 hPa | - | - | - | - |
| 1777477466 | 22.22° C | 77% | 1015 hPa | - | - | - | - |
| 1777476856 | 22.22° C | 71% | 1015.2 hPa | - | - | - | - |
| 1777476245 | 22.22° C | 68% | 1015.2 hPa | - | - | - | - |
| 1777475635 | 22.22° C | 73% | 1014.8 hPa | - | - | - | - |
| 1777475024 | 22.22° C | 80% | 1014.7 hPa | - | - | - | - |
| 1777474413 | 22.22° C | 74% | 1014.7 hPa | - | - | - | - |
| 1777473803 | 22.78° C | 76% | 1014.7 hPa | - | - | - | - |
| 1777473192 | 22.78° C | 75% | 1014.3 hPa | - | - | - | - |
| 1777472582 | 22.78° C | 75% | 1014.2 hPa | - | - | - | - |
| 1777471971 | 22.78° C | 82% | 1014.1 hPa | - | - | - | - |
| 1777471361 | 22.78° C | 79% | 1014.1 hPa | - | - | - | - |
| 1777470750 | 22.78° C | 84% | 1013.8 hPa | - | - | - | - |
| 1777470139 | 22.78° C | 83% | 1013.7 hPa | - | - | - | - |
| 1777469528 | 22.78° C | 81% | 1013.6 hPa | - | - | - | - |
| 1777468917 | 22.78° C | 81% | 1013.2 hPa | - | - | - | - |
| 1777468307 | 22.78° C | 83% | 1013 hPa | - | - | - | - |
* Rain since midnight (hover to see other rain measurements)
** Current wind speed in m/s (hover to see current wind gust speed)